Location: Estes Park
(40.3770°N, 105.5210°W)
Time: 00:39:26
(UTC-06:00)

ISS - Pass Details

Date: 15 October 2017
Orbit: 401 x 408 km, 51.6° (Epoch: 22 October)

Event Time Altitude Azimuth Distance (km) Brightness Sun altitude
Rises 19:42:09 0° 298° (WNW) 2,317 1.2 -16.1°
Reaches altitude 10° 19:44:25 10° 286° (WNW) 1,456 0.2 -16.5°
Maximum altitude 19:47:15 27° 225° (SW) 800 -1.9 -17.1°
Enters shadow 19:49:39 13° 169° (S) 1,304 -1.4 -17.5°
